Find Gregoire

NORAD ID: 56946 Int'l Des: 2023-084 Owner: ASPLB Country: B operational
LEOCIRCULARRETROGRADESSO

Current View

Loading 3D Globe...

About Gregoire

Description loading...

Upcoming Passes

Passes for default location (London). Set your location on the main map for personalized predictions.

Altitude History

Loading altitude history...

Two-Line Element Set

1 56946U 23084Q 26150.97241288 .00010399 00000-0 27958-3 0 9998
2 56946 97.6217 294.1821 0006522 30.6936 329.4688 15.38077185165066
Epoch: May 30, 2026 • Age: 17 hours

Current Status

Altitude 482.4 km
Velocity 7.62 km/s
Sub-Earth Point -81.19°S, 74.95°W
Launch Date Jun 12, 2023
Age 2.9 years
Type other

Technical Details

Classification Payload
Mass 100.00 kg
Dry Mass 100.00 kg
Total Mass 100.00 kg
Length 1.00 m
Diameter 0.60 m
Span 1.00 m
Shape Box
Manufacturer ASPLB
Bus Type VSP
Phase Status In Orbit
Owner/State ASPLB/B

Most Searched